[[{"header":{"parameterUnit":"m.s-1","parameterCategory":1,"la1":30.2991,"la2":30.254,"lo1":-89.0895,"lo2":-89.0444,"dy":0.0017,"dx":0.0017,"nx":28,"ny":28,"refTime":"2023-08-11T09:00:00:Z","depth":0,"parameterNumber":2,"parameterNumberName":"U-component_of_WINDS"},"data":[0,0,0,0,0,0,0,0,0,0,0,0,0,0,0,0,0,0,0,0,0,0,0,0,0,0,0,0,0,0,0,0,0,0,0,0,0,0,0,0,0,0,0,0,0,0,0,0,0,0,0,0,0,0,0,0,0,0,3.3903,3.3904,0,3.3958,3.3958,3.3959,3.3857,3.3854,3.385,3.3847,3.3903,3.3908,3.3912,0,0,0,0,0,0,0,0,0,0,0,0,0,3.3709,3.3713,3.3903,3.3904,3.3904,3.3958,3.3958,3.3959,3.3858,3.3854,3.385,3.3846,3.3902,3.3907,3.3913,0,0,0,0,0,0,0,0,0,0,0,0,0,3.3781,3.3714,3.3903,3.386,3.3857,3.3957,3.3958,3.3959,3.3859,3.3854,3.3849,3.3844,3.39,3.3907,3.3913,3.4058,0,0,3.3935,3.3938,0,0,0,0,0,0,0,0,3.3777,3.3788,3.3866,3.3863,3.386,3.3895,3.391,3.3992,3.386,3.3858,3.3847,3.3841,3.3905,3.3911,3.3932,3.406,3.4063,3.3935,3.394,3.3943,3.3944,0,0,0,0,0,0,0,3.3772,3.3786,3.3925,3.3867,3.3864,3.3838,3.3842,3.3925,3.3909,3.3858,3.3851,3.3858,3.3902,3.3926,3.3933,3.4064,3.3935,3.3941,3.3946,3.3948,3.4308,3.4313,0,0,0,0,0,0,3.3773,3.3782,3.3923,3.3926,3.3805,3.3845,3.385,3.3889,3.3908,3.3906,3.3863,3.3854,3.3916,3.3925,3.3934,3.4101,3.3942,3.3949,3.3953,3.4303,3.4309,3.4315,0,0,0,0,0,0,3.3769,3.3786,3.3921,3.3852,3.3867,3.3854,3.3898,3.3893,3.3916,3.3912,3.3908,3.389,3.3913,3.3925,3.4027,3.4102,3.3952,3.3958,3.4296,3.4305,3.4312,3.4438,0,0,0,0,0,0,3.3764,3.3786,3.3841,3.3854,3.3871,3.4013,3.3903,3.3898,3.3929,3.3917,3.3936,3.3935,3.391,3.4017,3.4034,3.4108,3.3964,3.4289,3.43,3.4309,3.4427,3.4449,3.4468,0,0,0,0,0,3.3757,3.3876,3.3845,3.3862,3.3941,3.4018,3.4028,3.3996,3.3935,3.399,3.3986,3.3934,3.4091,3.4028,3.4046,3.4124,3.4284,3.4297,3.4309,3.4418,3.4445,3.4468,0,0,0,0,0,0,3.3873,3.3877,3.3842,3.3968,3.3993,3.4001,3.4069,3.4027,3.407,3.4058,3.4017,3.4022,3.4132,3.4138,3.4068,3.4263,3.4177,3.4194,3.4254,3.428,3.43,3.4295,3.397,0,0,0,0,0,3.3913,3.3976,3.3976,3.4087,3.4101,3.4083,3.4116,3.4089,3.4114,3.4124,3.4128,3.4153,3.4207,3.4244,3.4295,3.4428,3.4428,3.449,3.4511,3.4528,3.4542,3.4608,3.4635,3.4355,3.4355,3.4354,0,0,3.3996,3.4006,3.4049,3.411,3.4126,3.4191,3.4093,3.4166,3.4213,3.4135,3.423,3.4234,3.426,3.4377,3.4429,3.4386,3.4619,3.4543,3.4557,3.4561,3.4624,3.465,3.4674,3.4363,3.4361,3.436,0,0,3.418,3.4196,3.4288,3.4306,3.4331,3.4318,3.434,3.4353,3.4352,3.4447,3.4389,3.4444,3.454,3.4559,3.4581,3.477,3.4722,3.4787,3.4895,3.496,3.4982,3.5001,3.5065,3.5089,3.4801,3.4802,3.4802,0,3.4281,3.4376,3.4341,3.4417,3.4444,3.4376,3.4467,3.4486,3.4527,3.4547,3.4499,3.4615,3.4627,3.4746,3.4791,3.4813,3.4835,3.4784,3.4982,3.5001,3.5018,3.5078,3.5103,3.4809,3.4808,3.4808,3.4807,0,3.4496,3.4563,3.4635,3.4674,3.4709,3.4794,3.4769,3.4809,3.4779,3.4771,3.4867,3.4879,3.4929,3.4955,3.4928,3.5069,3.5041,3.4989,3.4901,3.5053,3.5109,3.5132,3.482,3.4817,3.4815,3.4813,0,0,3.4755,3.4772,3.4798,3.4813,3.4835,3.4886,3.4965,3.5013,3.5046,3.5077,3.514,3.5222,3.5171,3.5197,3.5171,3.5229,3.5372,3.5168,3.5168,3.5202,3.5524,3.5562,3.559,3.5341,3.5346,3.5349,3.5521,0,3.4935,3.5071,3.504,3.5174,3.5233,3.5168,3.5236,3.5256,3.525,3.5299,3.5292,3.5348,3.528,3.5294,3.5349,3.5343,3.5436,3.5331,3.5398,3.5401,3.5391,3.5619,3.566,3.5822,3.5543,3.5547,3.5549,0,3.5164,3.52,3.534,3.5348,3.5371,3.5434,3.5473,3.5521,3.5541,3.5532,3.5559,3.5521,3.5597,3.5511,3.5614,3.5544,3.5569,3.5571,3.5576,3.5579,3.5483,3.5625,3.5873,3.5896,3.5584,3.5581,3.5579,0,3.5333,3.5418,3.5511,3.5527,3.554,3.5585,3.5592,3.5607,3.5637,3.5671,3.5689,3.5733,3.5756,3.579,3.5763,3.5704,3.587,3.5782,3.5862,3.5863,3.5899,3.5896,3.6151,3.5921,3.592,3.592,3.5919,0,3.5536,3.5623,3.5587,3.5644,3.5739,3.5702,3.5796,3.5796,3.5809,3.5864,3.5811,3.5863,3.5826,3.5875,3.5855,3.5941,3.5953,3.5947,3.594,3.595,3.595,3.5964,3.5951,3.5926,3.5925,3.5924,3.5922,0,3.5741,3.5721,3.5818,3.5821,3.5824,3.5893,3.5896,3.5948,3.5937,3.6006,3.6021,3.6004,3.6058,3.6035,3.6093,3.6079,3.6189,3.6169,3.6182,3.6175,3.6255,3.6247,3.6525,3.6558,3.631,3.6313,3.6315,0,3.587,3.5935,3.5945,3.5977,3.5988,3.6041,3.607,3.6036,3.6068,3.6094,3.6142,3.6192,3.6229,3.6319,3.6311,3.6354,3.6333,3.6427,3.6339,3.6345,3.633,3.6325,3.6329,3.6444,3.6447,3.645,3.6451,0,3.61,3.6086,3.613,3.6169,3.6205,3.6235,3.626,3.629,3.6256,3.6295,3.6349,3.6378,3.6435,3.6484,3.6522,3.6528,3.6484,3.648,3.65,3.6509,3.6512,3.6508,3.6227,3.6473,3.6471,3.6469,3.6468,3.6467,3.6268,3.6321,3.6335,3.6385,3.64,3.6424,3.6471,3.6466,3.651,3.6554,3.6531,3.6593,3.6608,3.6654,3.6666,3.6713,3.6676,3.6706,3.6713,3.6721,3.6729,3.6507,3.6721,3.672,3.672,3.6719,3.6719,0,3.6492,3.6497,3.6543,3.6579,3.6617,3.6572,3.6597,3.6631,3.6686,3.6705,3.6742,3.6802,3.6849,3.6844,3.6886,3.6924,3.6905,3.6936,3.6932,3.6933,3.6762,3.6739,3.6951,3.6951,3.6951,3.6951,3.6951,3.6951,3.6613,3.6698,3.6686,3.6777,3.6782,3.6842,3.6859,3.688,3.6894,3.6963,3.7001,3.6998,3.7006,3.7047,3.7087,3.7084,3.7101,3.7139,3.7129,3.6969,3.6946,3.6924,3.6901,3.7144,3.7144,3.7295,3.7296,3.7297]},{"header":{"parameterUnit":"m.s-1","parameterCategory":1,"la1":30.2991,"la2":30.254,"lo1":-89.0895,"lo2":-89.0444,"dy":0.0017,"dx":0.0017,"nx":28,"ny":28,"refTime":"2023-08-11T09:00:00:Z","depth":0,"parameterNumber":3,"parameterNumberName":"V-component_of_WINDS"},"data":[0,0,0,0,0,0,0,0,0,0,0,0,0,0,0,0,0,0,0,0,0,0,0,0,0,0,0,0,0,0,0,0,0,0,0,0,0,0,0,0,0,0,0,0,0,0,0,0,0,0,0,0,0,0,0,0,0,0,3.4578,3.4579,0,3.4677,3.4678,3.4679,3.4643,3.4641,3.4638,3.4636,3.4734,3.4738,3.4743,0,0,0,0,0,0,0,0,0,0,0,0,0,3.4351,3.4355,3.4578,3.4579,3.458,3.4677,3.4678,3.468,3.4643,3.464,3.4638,3.4635,3.4732,3.4738,3.4744,0,0,0,0,0,0,0,0,0,0,0,0,0,3.445,3.4357,3.4578,3.4574,3.4575,3.4677,3.4678,3.468,3.4644,3.464,3.4637,3.4634,3.4731,3.4737,3.4744,3.4855,0,0,3.4766,3.4769,0,0,0,0,0,0,0,0,3.4444,3.4458,3.4573,3.4574,3.4575,3.4644,3.4634,3.4739,3.4645,3.4617,3.4636,3.4632,3.4707,3.4715,3.4741,3.486,3.4864,3.4766,3.4771,3.4774,3.4776,0,0,0,0,0,0,0,3.4437,3.4454,3.4617,3.4575,3.4576,3.4565,3.4576,3.4654,3.4679,3.4619,3.4617,3.463,3.4706,3.4735,3.4743,3.4865,3.4766,3.4772,3.4777,3.478,3.5076,3.5079,0,0,0,0,0,0,3.4431,3.4448,3.4614,3.462,3.45,3.4572,3.4584,3.4625,3.4679,3.4683,3.4632,3.4627,3.4724,3.4735,3.4747,3.4878,3.4774,3.478,3.4784,3.5072,3.5077,3.5081,0,0,0,0,0,0,3.4426,3.4446,3.461,3.4534,3.4554,3.458,3.4627,3.4629,3.4657,3.4688,3.4692,3.4657,3.4722,3.4737,3.4828,3.4881,3.4783,3.479,3.5068,3.5074,3.5079,3.5143,0,0,0,0,0,0,3.442,3.4445,3.4488,3.4535,3.4558,3.4692,3.463,3.4634,3.467,3.4665,3.4712,3.4717,3.472,3.4818,3.4835,3.4889,3.4795,3.5063,3.5071,3.5077,3.5136,3.515,3.5161,0,0,0,0,0,3.4412,3.4502,3.4491,3.4511,3.4614,3.4695,3.4708,3.4711,3.4675,3.4718,3.4737,3.4715,3.4872,3.4827,3.4846,3.4903,3.506,3.5069,3.5077,3.513,3.5147,3.5161,0,0,0,0,0,0,3.4461,3.4508,3.4496,3.4605,3.4646,3.4689,3.4743,3.4729,3.4781,3.4774,3.4774,3.4785,3.4879,3.49,3.4849,3.5011,3.496,3.4973,3.4995,3.5011,3.5023,3.5016,3.4801,0,0,0,0,0,3.4484,3.4548,3.4585,3.4677,3.4699,3.4717,3.4753,3.4752,3.4794,3.4811,3.4837,3.4878,3.4936,3.4975,3.503,3.5138,3.5147,3.5187,3.5199,3.521,3.522,3.5277,3.5294,3.5108,3.5108,3.5108,0,0,3.4533,3.4567,3.4607,3.4688,3.472,3.4784,3.4732,3.4803,3.485,3.4821,3.4909,3.493,3.4975,3.5075,3.512,3.5095,3.5273,3.522,3.5228,3.5233,3.5287,3.5305,3.532,3.5113,3.5112,3.5111,0,0,3.4655,3.4688,3.4767,3.48,3.4849,3.486,3.4879,3.4924,3.4936,3.5025,3.5004,3.5059,3.516,3.5192,3.5222,3.5353,3.5334,3.5371,3.5437,3.5492,3.5507,3.552,3.5565,3.5582,3.5381,3.5382,3.5382,0,3.4709,3.4806,3.4809,3.4881,3.4916,3.4894,3.4973,3.5004,3.5068,3.5092,3.5063,3.5188,3.5217,3.5323,3.5355,3.538,3.54,3.5366,3.5505,3.5518,3.553,3.5573,3.5591,3.5386,3.5385,3.5385,3.5384,0,3.487,3.4937,3.4995,3.5058,3.5099,3.5174,3.5186,3.5228,3.5222,3.5236,3.5325,3.5358,3.5419,3.5444,3.544,3.5549,3.5532,3.5504,3.5453,3.5552,3.5592,3.5609,3.5391,3.539,3.5389,3.5388,0,0,3.5026,3.5089,3.511,3.5137,3.5189,3.524,3.5312,3.5373,3.5407,3.5451,3.5511,3.5596,3.557,3.5604,3.5602,3.5651,3.575,3.5617,3.5618,3.5639,3.587,3.589,3.591,3.5738,3.5741,3.5744,3.5866,0,3.5151,3.528,3.5284,3.5401,3.5462,3.5441,3.5503,3.554,3.5555,3.5607,3.5622,3.5681,3.5644,3.5664,3.5711,3.5728,3.5796,3.5719,3.5791,3.5794,3.578,3.5931,3.5953,3.6067,3.5882,3.5885,3.5887,0,3.5314,3.5364,3.5488,3.5529,3.5554,3.5611,3.5665,3.5716,3.5757,3.5763,3.58,3.5791,3.5862,3.5809,3.5906,3.5854,3.5883,3.5895,3.59,3.5906,3.5846,3.594,3.6104,3.612,3.5912,3.591,3.5908,0,3.5414,3.5512,3.5598,3.5623,3.5673,3.5713,3.5735,3.5772,3.5808,3.5854,3.5877,3.5931,3.5961,3.6002,3.6006,3.5967,3.6103,3.6051,3.6109,3.6109,3.6139,3.6137,3.6308,3.6159,3.6159,3.6159,3.6158,0,3.5553,3.5629,3.5644,3.5697,3.578,3.5782,3.5864,3.5883,3.5916,3.5971,3.5955,3.6006,3.601,3.6062,3.6065,3.6144,3.6158,3.6164,3.6164,3.6165,3.6164,3.6184,3.6176,3.6163,3.6162,3.6161,3.6161,0,3.5679,3.5692,3.5784,3.5824,3.5835,3.5895,3.5928,3.5977,3.5989,3.6058,3.6074,3.6093,3.6153,3.6162,3.6232,3.6234,3.6328,3.6321,3.6315,3.6314,3.6372,3.6366,3.6561,3.6586,3.6422,3.6423,3.6424,0,3.5766,3.5825,3.587,3.5906,3.593,3.5989,3.6024,3.6028,3.6065,3.6114,3.6157,3.6216,3.6263,3.6359,3.6378,3.6431,3.6423,3.6488,3.6431,3.643,3.6423,3.6419,3.6424,3.6499,3.6501,3.6502,3.6503,0,3.592,3.5923,3.5976,3.6031,3.6074,3.6117,3.6158,3.6187,3.6195,3.6238,3.63,3.6336,3.6407,3.6465,3.6517,3.6537,3.6521,3.6521,3.6537,3.6539,3.6533,3.6535,3.6344,3.6517,3.6515,3.6514,3.6513,3.6513,3.6028,3.6078,3.6117,3.6176,3.6207,3.6245,3.6293,3.631,3.6362,3.6421,3.6419,3.6487,3.6523,3.6591,3.6615,3.6666,3.6645,3.6669,3.6675,3.668,3.6686,3.6525,3.6676,3.6676,3.6675,3.6675,3.6675,0,3.6179,3.6203,3.6257,3.6315,3.636,3.6342,3.6385,3.6424,3.6484,3.652,3.6566,3.6636,3.6691,3.6713,3.6767,3.6803,3.6797,3.6817,3.6814,3.6819,3.6702,3.6682,3.6821,3.6821,3.6821,3.6821,3.6821,3.6821,3.6263,3.6346,3.6354,3.645,3.6473,3.654,3.6566,3.6599,3.6628,3.6707,3.6753,3.6767,3.6797,3.6852,3.6901,3.6906,3.6926,3.6949,3.6951,3.6842,3.6827,3.6813,3.6794,3.6954,3.6954,3.7063,3.7064,3.7065]}]]